This demonstration page uses our WeatherBlox Daily Observations layout. Learn more.

Hourly Observations for January 15, 2015

Temp ( °F °C ) Dew Point ( °F °C ) Humidity (%) Winds ( mph kmh ) Pressure ( in mb ) Visibility ( mi km ) Precip ( " mm )
12:15 am 00:15 Clear 29 -1.7 20 -6.6 70 70 W 10 17 30.24 1024 10 16.0934 0 0
12:35 am 00:35 Clear 29 -1.5 20 -6.8 68 68 W 9 15 30.24 1024 10 16.0934 0 0
12:55 am 00:55 Clear 28 -2 20 -6.7 71 71 W 9 15 30.21 1023 10 16.0934 0 0
1:15 am 01:15 Clear 29 -1.7 20 -6.7 69 69 W 9 15 30.21 1023 10 16.0934 0 0
1:35 am 01:35 Clear 28 -2.5 19 -7 72 72 W 9 15 30.21 1023 10 16.0934 0 0
1:55 am 01:55 Clear 27 -2.9 19 -7.1 73 73 W 9 15 30.24 1024 10 16.0934 0 0
2:15 am 02:15 Clear 27 -3 19 -7 74 74 W 9 15 30.24 1024 10 16.0934 0 0
2:35 am 02:35 Clear 26 -3.6 19 -7.3 76 76 W 7 11 30.24 1024 10 16.0934 0 0
2:55 am 02:55 Clear 25 -4 19 -7.4 77 77 W 8 13 30.24 1024 10 16.0934 0 0
3:15 am 03:15 Clear 23 -4.8 18 -7.7 80 80 W 7 11 30.27 1025 10 16.0934 0 0
3:35 am 03:35 Clear 24 -4.5 19 -7.3 81 81 W 9 15 30.27 1025 10 16.0934 0 0
3:55 am 03:55 Clear 24 -4.4 19 -7.3 80 80 WNW 7 11 30.24 1024 10 16.0934 0 0
4:15 am 04:15 Clear 23 -4.8 18 -7.7 80 80 WNW 8 13 30.27 1025 10 16.0934 0 0
4:35 am 04:35 Clear 23 -5 18 -7.8 81 81 WNW 7 11 30.27 1025 10 16.0934 0 0
4:55 am 04:55 Clear 23 -4.8 18 -8 79 79 WNW 8 13 30.27 1025 10 16.0934 0 0
5:15 am 05:15 Clear 22 -5.4 17 -8.4 80 80 NW 8 13 30.27 1025 10 16.0934 0 0
5:35 am 05:35 Clear 21 -5.9 17 -8.4 83 83 WNW 8 13 30.3 1026 10 16.0934 0 0
5:55 am 05:55 Clear 23 -5 17 -8.1 79 79 WNW 8 13 30.27 1025 10 16.0934 0 0
6:15 am 06:15 Clear 23 -5 17 -8.5 77 77 WNW 7 11 30.27 1025 10 16.0934 0 0
6:35 am 06:35 Clear 24 -4.4 17 -8.1 76 76 WNW 8 13 30.27 1025 10 16.0934 0 0
6:55 am 06:55 Clear 23 -4.8 17 -8.4 76 76 W 8 13 30.27 1025 10 16.0934 0 0
7:15 am 07:15 Clear 23 -5 17 -8.4 77 77 WNW 7 11 30.27 1025 10 16.0934 0 0
7:35 am 07:35 Clear 25 -4 18 -8 74 74 WNW 8 13 30.27 1025 10 16.0934 0 0
7:55 am 07:55 Clear 25 -3.7 18 -8 72 72 NW 8 13 30.27 1025 10 16.0934 0 0
8:15 am 08:15 Sunny 25 -3.8 19 -7.5 76 76 NW 9 15 30.27 1025 10 16.0934 0 0
8:35 am 08:35 Sunny 27 -2.9 19 -7 74 74 NW 9 15 30.3 1026 10 16.0934 0 0
8:55 am 08:55 Sunny 28 -2.1 20 -6.5 72 72 NW 10 17 30.27 1025 10 16.0934 0 0
9:15 am 09:15 Sunny 30 -1.2 21 -6.1 70 70 NW 10 17 30.3 1026 10 16.0934 0 0
9:35 am 09:35 Sunny 31 -0.4 22 -5.8 67 67 NW 13 20 30.3 1026 10 16.0934 0 0
9:55 am 09:55 Sunny 33 0.7 23 -4.9 66 66 NW 13 20 30.3 1026 10 16.0934 0 0
10:15 am 10:15 Sunny 35 1.5 22 -5.5 60 60 NW 12 19 30.3 1026 10 16.0934 0 0
10:35 am 10:35 Sunny 37 2.5 22 -5.4 56 56 NW 13 20 30.3 1026 10 16.0934 0 0
10:55 am 10:55 Sunny 38 3.6 23 -5.1 53 53 NW 12 19 30.3 1026 10 16.0934 0 0
11:15 am 11:15 Sunny 41 5.2 24 -4.6 50 50 NW 13 20 30.27 1025 10 16.0934 0 0
11:35 am 11:35 Sunny 42 5.5 23 -4.8 48 48 NNW 10 17 30.27 1025 10 16.0934 0 0
11:55 am 11:55 Sunny 44 6.5 24 -4.4 46 46 NW 10 17 30.24 1024 10 16.0934 0 0
12:15 pm 12:15 Sunny 45 7.2 24 -4.5 44 44 NW 10 17 30.24 1024 10 16.0934 0 0
12:35 pm 12:35 Sunny 46 7.9 24 -4.6 41 41 WNW 9 15 30.21 1023 10 16.0934 0 0
12:55 pm 12:55 Sunny 47 8.4 24 -4.6 40 40 WNW 10 17 30.18 1022 10 16.0934 0 0
1:15 pm 13:15 Sunny 48 9 23 -4.9 37 37 NW 8 13 30.18 1022 10 16.0934 0 0
1:35 pm 13:35 Sunny 49 9.2 23 -4.9 37 37 WNW 9 15 30.18 1022 10 16.0934 0 0
1:55 pm 13:55 Sunny 48 9.1 23 -4.8 37 37 WNW 14 22 30.18 1022 10 16.0934 0 0
2:15 pm 14:15 Sunny 49 9.3 22 -5.3 36 36 WNW 9 15 30.18 1022 10 16.0934 0 0
2:35 pm 14:35 Sunny 49 9.4 23 -4.9 36 36 WNW 12 19 30.18 1022 10 16.0934 0 0
2:55 pm 14:55 Sunny 48 9 24 -4.7 38 38 WNW 9 15 30.18 1022 10 16.0934 0 0
3:15 pm 15:15 Sunny 47 8.5 25 -4.1 41 41 WNW 10 17 30.18 1022 10 16.0934 0 0
3:35 pm 15:35 Sunny 47 8.6 25 -4 41 41 WNW 8 13 30.21 1023 10 16.0934 0 0
3:55 pm 15:55 Sunny 47 8.6 25 -4 41 41 WNW 7 11 30.18 1022 10 16.0934 0 0
4:15 pm 16:15 Sunny 47 8.4 25 -3.8 42 42 WNW 7 11 30.18 1022 10 16.0934 0 0
4:35 pm 16:35 Sunny 46 8 26 -3.4 45 45 WNW 8 13 30.18 1022 10 16.0934 0 0
4:55 pm 16:55 Sunny 45 7.1 26 -3.3 48 48 W 7 11 30.21 1023 10 16.0934 0 0
5:15 pm 17:15 Sunny 42 5.6 26 -3.6 52 52 W 8 13 30.21 1023 10 16.0934 0 0
5:35 pm 17:35 Sunny 40 4.2 25 -3.9 56 56 W 5 7 30.24 1024 10 16.0934 0 0
5:55 pm 17:55 Clear 38 3.6 25 -4 58 58 W 5 7 30.24 1024 10 16.0934 0 0
6:15 pm 18:15 Clear 39 4 25 -3.9 57 57 WSW 3 6 30.24 1024 10 16.0934 0 0
6:35 pm 18:35 Clear 37 3 25 -4.1 60 60 W 3 6 30.24 1024 10 16.0934 0 0
6:55 pm 18:55 Clear 37 3 25 -4 60 60 W 5 7 30.24 1024 10 16.0934 0 0
7:15 pm 19:15 Clear 36 2.1 24 -4.2 63 63 W 7 11 30.24 1024 10 16.0934 0 0
7:35 pm 19:35 Clear 37 2.5 24 -4.3 61 61 WSW 3 6 30.24 1024 10 16.0934 0 0
7:55 pm 19:55 Clear 36 2.2 24 -4.2 63 63 WSW 5 7 30.24 1024 10 16.0934 0 0
8:15 pm 20:15 Clear 35 1.7 24 -4.3 65 65 WSW 3 6 30.24 1024 10 16.0934 0 0
8:35 pm 20:35 Clear 35 1.5 24 -4.4 65 65 WSW 3 6 30.24 1024 10 16.0934 0 0
8:55 pm 20:55 Clear 36 2.2 24 -4.4 62 62 WSW 3 6 30.24 1024 10 16.0934 0 0
9:15 pm 21:15 Clear 35 1.8 24 -4.4 64 64 WSW 3 6 30.21 1023 10 16.0934 0 0
9:35 pm 21:35 Clear 34 1.2 24 -4.3 67 67 WSW 5 7 30.21 1023 10 16.0934 0 0
9:55 pm 21:55 Clear 33 0.5 24 -4.3 71 71 WSW 5 7 30.21 1023 10 16.0934 0 0
10:15 pm 22:15 Clear 34 0.9 25 -4.1 70 70 WSW 6 9 30.21 1023 10 16.0934 0 0
10:35 pm 22:35 Clear 36 2 25 -3.7 66 66 W 6 9 30.21 1023 10 16.0934 0 0
10:55 pm 22:55 Clear 35 1.7 25 -4.1 66 66 WSW 3 6 30.21 1023 10 16.0934 0 0
11:15 pm 23:15 Clear 34 0.9 24 -4.4 68 68 SW 3 6 30.21 1023 10 16.0934 0 0
11:35 pm 23:35 Clear 32 0 24 -4.3 73 73 SW 5 7 30.24 1024 10 16.0934 0 0
11:55 pm 23:55 Clear 32 0 24 -4.3 73 73 SW 5 7 30.24 1024 10 16.0934 0 0

Powered by AerisWeather